Location: Arrien
(43.3167°N, 0.1500°W)
Time: 04:43:09
(UTC+00:00)

Cosmos 1953 - Pass Details

Date: 15 October 2021
Orbit: 537 x 557 km, 82.5° (Epoch: 02 December)

Event Time Altitude Azimuth Distance (km) Brightness Sun altitude
Rises 18:14:26 0° 172° (S) 2,716 5.8 -11.1°
Reaches altitude 10° 18:16:38 10° 166° (SSE) 1,830 4.8 -11.5°
Maximum altitude 18:20:29 45° 93° (E) 765 2.6 -12.2°
Drops below altitude 10° 18:24:23 10° 21° (NNE) 1,852 4.8 -12.9°
Sets 18:26:37 0° 15° (NNE) 2,753 5.7 -13.3°
